Location: Joffre
(52.3362°N, 113.5373°W)
Time: 14:22:55
(UTC+00:00)

Envisat - Pass Details

Date: 27 November 2021
Orbit: 764 x 766 km, 98.2° (Epoch: 28 January)

Event Time Altitude Azimuth Distance (km) Brightness Sun altitude
Rises 13:10:43 0° 12° (NNE) 3,249 6.3 -18.3°
Reaches altitude 10° 13:13:03 10° 10° (N) 2,318 5.5 -18.0°
Maximum altitude 13:18:06 66° 290° (WNW) 839 2.9 -17.2°
Drops below altitude 10° 13:23:08 10° 209° (SSW) 2,301 5.3 -16.5°
Sets 13:25:26 0° 206° (SSW) 3,222 6.1 -16.1°
